owner,sensor,date,latitude,longitude,sea_surface_height_above_sea_level,qcFlag 
COMPS,ioos:station:USF.COMPS:SHP:1,2017-09-01T00:30:00Z,30.0600,-84.2910,-9.992,1111122 
COMPS,ioos:station:USF.COMPS:SHP:1,2017-09-01T00:36:00Z,30.0600,-84.2910,-9.967,1111122 
COMPS,ioos:station:USF.COMPS:SHP:1,2017-09-01T00:42:00Z,30.0600,-84.2910,-9.95,1111122 
COMPS,ioos:station:USF.COMPS:SHP:1,2017-09-01T00:48:00Z,30.0600,-84.2910,-9.943,1111122 
COMPS,ioos:station:USF.COMPS:SHP:1,2017-09-01T00:54:00Z,30.0600,-84.2910,-9.92,1111122 
COMPS,ioos:station:USF.COMPS:SHP:1,2017-09-01T01:00:00Z,30.0600,-84.2910,-9.914,1111122 
COMPS,ioos:station:USF.COMPS:SHP:1,2017-09-01T01:06:00Z,30.0600,-84.2910,-9.942,1111122 
COMPS,ioos:station:USF.COMPS:SHP:1,2017-09-01T01:12:00Z,30.0600,-84.2910,-9.937,1111122 
COMPS,ioos:station:USF.COMPS:SHP:1,2017-09-01T01:18:00Z,30.0600,-84.2910,-9.919,1111122 
COMPS,ioos:station:USF.COMPS:SHP:1,2017-09-01T01:24:00Z,30.0600,-84.2910,-9.917,1111122 
COMPS,ioos:station:USF.COMPS:SHP:1,2017-09-01T01:30:00Z,30.0600,-84.2910,-9.899,1111122 
COMPS,ioos:station:USF.COMPS:SHP:1,2017-09-01T01:36:00Z,30.0600,-84.2910,-9.864,1111122 
COMPS,ioos:station:USF.COMPS:SHP:1,2017-09-01T01:42:00Z,30.0600,-84.2910,-9.836,1111122 
COMPS,ioos:station:USF.COMPS:SHP:1,2017-09-01T01:48:00Z,30.0600,-84.2910,-9.821,1111122 
COMPS,ioos:station:USF.COMPS:SHP:1,2017-09-01T01:54:00Z,30.0600,-84.2910,-9.809,1111122 
COMPS,ioos:station:USF.COMPS:SHP:1,2017-09-01T02:00:00Z,30.0600,-84.2910,-9.786,1111122 
COMPS,ioos:station:USF.COMPS:SHP:1,2017-09-01T02:06:00Z,30.0600,-84.2910,-9.76,1111122 
COMPS,ioos:station:USF.COMPS:SHP:1,2017-09-01T02:12:00Z,30.0600,-84.2910,-9.755,1111122 
COMPS,ioos:station:USF.COMPS:SHP:1,2017-09-01T02:18:00Z,30.0600,-84.2910,-9.763,1111122 
COMPS,ioos:station:USF.COMPS:SHP:1,2017-09-01T02:24:00Z,30.0600,-84.2910,-9.775,1111122 
COMPS,ioos:station:USF.COMPS:SHP:1,2017-09-01T02:30:00Z,30.0600,-84.2910,-9.775,1111122 
COMPS,ioos:station:USF.COMPS:SHP:1,2017-09-01T02:36:00Z,30.0600,-84.2910,-9.753,1111122 
COMPS,ioos:station:USF.COMPS:SHP:1,2017-09-01T02:42:00Z,30.0600,-84.2910,-9.758,1111122 
COMPS,ioos:station:USF.COMPS:SHP:1,2017-09-01T02:48:00Z,30.0600,-84.2910,-9.781,1111122 
COMPS,ioos:station:USF.COMPS:SHP:1,2017-09-01T02:54:00Z,30.0600,-84.2910,-9.769,1111122 
COMPS,ioos:station:USF.COMPS:SHP:1,2017-09-01T03:00:00Z,30.0600,-84.2910,-9.752,1111122 
COMPS,ioos:station:USF.COMPS:SHP:1,2017-09-01T03:06:00Z,30.0600,-84.2910,-9.752,1111122 
COMPS,ioos:station:USF.COMPS:SHP:1,2017-09-01T03:12:00Z,30.0600,-84.2910,-9.747,1111122 
COMPS,ioos:station:USF.COMPS:SHP:1,2017-09-01T03:18:00Z,30.0600,-84.2910,-9.746,1111122 
COMPS,ioos:station:USF.COMPS:SHP:1,2017-09-01T03:24:00Z,30.0600,-84.2910,-9.722,1111122 
COMPS,ioos:station:USF.COMPS:SHP:1,2017-09-01T03:30:00Z,30.0600,-84.2910,-9.693,1111122 
COMPS,ioos:station:USF.COMPS:SHP:1,2017-09-01T03:36:00Z,30.0600,-84.2910,-9.687,1111122 
COMPS,ioos:station:USF.COMPS:SHP:1,2017-09-01T03:42:00Z,30.0600,-84.2910,-9.675,1111122 
COMPS,ioos:station:USF.COMPS:SHP:1,2017-09-01T03:48:00Z,30.0600,-84.2910,-9.671,1111122 
COMPS,ioos:station:USF.COMPS:SHP:1,2017-09-01T03:54:00Z,30.0600,-84.2910,-9.68,1111122 
COMPS,ioos:station:USF.COMPS:SHP:1,2017-09-01T04:00:00Z,30.0600,-84.2910,-9.671,1111122 
COMPS,ioos:station:USF.COMPS:SHP:1,2017-09-01T04:06:00Z,30.0600,-84.2910,-9.649,1111122 
COMPS,ioos:station:USF.COMPS:SHP:1,2017-09-01T04:12:00Z,30.0600,-84.2910,-9.641,1111122 
COMPS,ioos:station:USF.COMPS:SHP:1,2017-09-01T04:18:00Z,30.0600,-84.2910,-9.638,1111122 
COMPS,ioos:station:USF.COMPS:SHP:1,2017-09-01T04:24:00Z,30.0600,-84.2910,-9.64,1111122 
COMPS,ioos:station:USF.COMPS:SHP:1,2017-09-01T04:30:00Z,30.0600,-84.2910,-9.643,1111122 
COMPS,ioos:station:USF.COMPS:SHP:1,2017-09-01T04:36:00Z,30.0600,-84.2910,-9.632,1111122 
COMPS,ioos:station:USF.COMPS:SHP:1,2017-09-01T04:42:00Z,30.0600,-84.2910,-9.616,1111122 
COMPS,ioos:station:USF.COMPS:SHP:1,2017-09-01T04:48:00Z,30.0600,-84.2910,-9.609,1111122 
COMPS,ioos:station:USF.COMPS:SHP:1,2017-09-01T04:54:00Z,30.0600,-84.2910,-9.617,1111122 
COMPS,ioos:station:USF.COMPS:SHP:1,2017-09-01T05:00:00Z,30.0600,-84.2910,-9.615,1111122 
COMPS,ioos:station:USF.COMPS:SHP:1,2017-09-01T05:06:00Z,30.0600,-84.2910,-9.623,1111122 
COMPS,ioos:station:USF.COMPS:SHP:1,2017-09-01T05:12:00Z,30.0600,-84.2910,-9.617,1111122 
COMPS,ioos:station:USF.COMPS:SHP:1,2017-09-01T05:18:00Z,30.0600,-84.2910,-9.613,1111122 
COMPS,ioos:station:USF.COMPS:SHP:1,2017-09-01T05:24:00Z,30.0600,-84.2910,-9.612,1111122 
COMPS,ioos:station:USF.COMPS:SHP:1,2017-09-01T05:30:00Z,30.0600,-84.2910,-9.62,1111122 
COMPS,ioos:station:USF.COMPS:SHP:1,2017-09-01T05:36:00Z,30.0600,-84.2910,-9.641,1111122 
COMPS,ioos:station:USF.COMPS:SHP:1,2017-09-01T05:42:00Z,30.0600,-84.2910,-9.648,1111122 
COMPS,ioos:station:USF.COMPS:SHP:1,2017-09-01T05:48:00Z,30.0600,-84.2910,-9.646,1111122 
COMPS,ioos:station:USF.COMPS:SHP:1,2017-09-01T05:54:00Z,30.0600,-84.2910,-9.665,1111122 
COMPS,ioos:station:USF.COMPS:SHP:1,2017-09-01T06:00:00Z,30.0600,-84.2910,-9.686,1111122 
COMPS,ioos:station:USF.COMPS:SHP:1,2017-09-01T06:06:00Z,30.0600,-84.2910,-9.679,1111122 
COMPS,ioos:station:USF.COMPS:SHP:1,2017-09-01T06:12:00Z,30.0600,-84.2910,-9.671,1111122 
COMPS,ioos:station:USF.COMPS:SHP:1,2017-09-01T06:18:00Z,30.0600,-84.2910,-9.678,1111122 
COMPS,ioos:station:USF.COMPS:SHP:1,2017-09-01T06:24:00Z,30.0600,-84.2910,-9.683,1111122 
COMPS,ioos:station:USF.COMPS:SHP:1,2017-09-01T06:30:00Z,30.0600,-84.2910,-9.694,1111122 
COMPS,ioos:station:USF.COMPS:SHP:1,2017-09-01T06:36:00Z,30.0600,-84.2910,-9.707,1111122 
COMPS,ioos:station:USF.COMPS:SHP:1,2017-09-01T06:42:00Z,30.0600,-84.2910,-9.704,1111122 
COMPS,ioos:station:USF.COMPS:SHP:1,2017-09-01T06:48:00Z,30.0600,-84.2910,-9.697,1111122 
COMPS,ioos:station:USF.COMPS:SHP:1,2017-09-01T06:54:00Z,30.0600,-84.2910,-9.696,1111122 
COMPS,ioos:station:USF.COMPS:SHP:1,2017-09-01T07:00:00Z,30.0600,-84.2910,-9.699,1111122 
COMPS,ioos:station:USF.COMPS:SHP:1,2017-09-01T07:06:00Z,30.0600,-84.2910,-9.713,1111122 
COMPS,ioos:station:USF.COMPS:SHP:1,2017-09-01T07:12:00Z,30.0600,-84.2910,-9.721,1111122 
COMPS,ioos:station:USF.COMPS:SHP:1,2017-09-01T07:18:00Z,30.0600,-84.2910,-9.723,1111122 
COMPS,ioos:station:USF.COMPS:SHP:1,2017-09-01T07:24:00Z,30.0600,-84.2910,-9.729,1111122 
COMPS,ioos:station:USF.COMPS:SHP:1,2017-09-01T07:30:00Z,30.0600,-84.2910,-9.725,1111122 
COMPS,ioos:station:USF.COMPS:SHP:1,2017-09-01T07:36:00Z,30.0600,-84.2910,-9.724,1111122 
COMPS,ioos:station:USF.COMPS:SHP:1,2017-09-01T07:42:00Z,30.0600,-84.2910,-9.725,1111122 
COMPS,ioos:station:USF.COMPS:SHP:1,2017-09-01T07:48:00Z,30.0600,-84.2910,-9.728,1111122 
COMPS,ioos:station:USF.COMPS:SHP:1,2017-09-01T07:54:00Z,30.0600,-84.2910,-9.736,1111122 
COMPS,ioos:station:USF.COMPS:SHP:1,2017-09-01T08:00:00Z,30.0600,-84.2910,-9.75,1111122 
COMPS,ioos:station:USF.COMPS:SHP:1,2017-09-01T08:06:00Z,30.0600,-84.2910,-9.762,1111122 
COMPS,ioos:station:USF.COMPS:SHP:1,2017-09-01T08:12:00Z,30.0600,-84.2910,-9.769,1111122 
COMPS,ioos:station:USF.COMPS:SHP:1,2017-09-01T08:18:00Z,30.0600,-84.2910,-9.769,1111122 
COMPS,ioos:station:USF.COMPS:SHP:1,2017-09-01T08:24:00Z,30.0600,-84.2910,-9.776,1111122 
COMPS,ioos:station:USF.COMPS:SHP:1,2017-09-01T08:30:00Z,30.0600,-84.2910,-9.777,1111122 
COMPS,ioos:station:USF.COMPS:SHP:1,2017-09-01T08:36:00Z,30.0600,-84.2910,-9.773,1111122 
COMPS,ioos:station:USF.COMPS:SHP:1,2017-09-01T08:42:00Z,30.0600,-84.2910,-9.765,1111122 
COMPS,ioos:station:USF.COMPS:SHP:1,2017-09-01T08:48:00Z,30.0600,-84.2910,-9.765,1111122 
COMPS,ioos:station:USF.COMPS:SHP:1,2017-09-01T08:54:00Z,30.0600,-84.2910,-9.774,1111122 
COMPS,ioos:station:USF.COMPS:SHP:1,2017-09-01T09:00:00Z,30.0600,-84.2910,-9.776,1111122 
COMPS,ioos:station:USF.COMPS:SHP:1,2017-09-01T09:06:00Z,30.0600,-84.2910,-9.77,1111122 
COMPS,ioos:station:USF.COMPS:SHP:1,2017-09-01T09:12:00Z,30.0600,-84.2910,-9.771,1111122 
COMPS,ioos:station:USF.COMPS:SHP:1,2017-09-01T09:18:00Z,30.0600,-84.2910,-9.776,1111122 
COMPS,ioos:station:USF.COMPS:SHP:1,2017-09-01T09:24:00Z,30.0600,-84.2910,-9.778,1111122 
COMPS,ioos:station:USF.COMPS:SHP:1,2017-09-01T09:30:00Z,30.0600,-84.2910,-9.778,1111122 
COMPS,ioos:station:USF.COMPS:SHP:1,2017-09-01T09:36:00Z,30.0600,-84.2910,-9.767,1111122 
COMPS,ioos:station:USF.COMPS:SHP:1,2017-09-01T09:42:00Z,30.0600,-84.2910,-9.745,1111122 
COMPS,ioos:station:USF.COMPS:SHP:1,2017-09-01T09:48:00Z,30.0600,-84.2910,-9.737,1111122 
COMPS,ioos:station:USF.COMPS:SHP:1,2017-09-01T09:54:00Z,30.0600,-84.2910,-9.737,1111122 
COMPS,ioos:station:USF.COMPS:SHP:1,2017-09-01T10:00:00Z,30.0600,-84.2910,-9.743,1111122 
COMPS,ioos:station:USF.COMPS:SHP:1,2017-09-01T10:06:00Z,30.0600,-84.2910,-9.751,1111122 
COMPS,ioos:station:USF.COMPS:SHP:1,2017-09-01T10:12:00Z,30.0600,-84.2910,-9.747,1111122 
COMPS,ioos:station:USF.COMPS:SHP:1,2017-09-01T10:18:00Z,30.0600,-84.2910,-9.745,1111122 
COMPS,ioos:station:USF.COMPS:SHP:1,2017-09-01T10:24:00Z,30.0600,-84.2910,-9.734,1111122 
COMPS,ioos:station:USF.COMPS:SHP:1,2017-09-01T10:30:00Z,30.0600,-84.2910,-9.72,1111122 
COMPS,ioos:station:USF.COMPS:SHP:1,2017-09-01T10:36:00Z,30.0600,-84.2910,-9.719,1111122 
COMPS,ioos:station:USF.COMPS:SHP:1,2017-09-01T10:42:00Z,30.0600,-84.2910,-9.724,1111122 
COMPS,ioos:station:USF.COMPS:SHP:1,2017-09-01T10:48:00Z,30.0600,-84.2910,-9.721,1111122 
COMPS,ioos:station:USF.COMPS:SHP:1,2017-09-01T10:54:00Z,30.0600,-84.2910,-9.709,1111122 
COMPS,ioos:station:USF.COMPS:SHP:1,2017-09-01T11:00:00Z,30.0600,-84.2910,-9.691,1111122 
COMPS,ioos:station:USF.COMPS:SHP:1,2017-09-01T11:06:00Z,30.0600,-84.2910,-9.679,1111122 
COMPS,ioos:station:USF.COMPS:SHP:1,2017-09-01T11:12:00Z,30.0600,-84.2910,-9.681,1111122 
COMPS,ioos:station:USF.COMPS:SHP:1,2017-09-01T11:18:00Z,30.0600,-84.2910,-9.681,1111122 
COMPS,ioos:station:USF.COMPS:SHP:1,2017-09-01T11:24:00Z,30.0600,-84.2910,-9.67,1111122 
COMPS,ioos:station:USF.COMPS:SHP:1,2017-09-01T11:30:00Z,30.0600,-84.2910,-9.664,1111122 
COMPS,ioos:station:USF.COMPS:SHP:1,2017-09-01T11:36:00Z,30.0600,-84.2910,-9.654,1111122 
COMPS,ioos:station:USF.COMPS:SHP:1,2017-09-01T11:42:00Z,30.0600,-84.2910,-9.647,1111122 
COMPS,ioos:station:USF.COMPS:SHP:1,2017-09-01T11:48:00Z,30.0600,-84.2910,-9.635,1111122 
COMPS,ioos:station:USF.COMPS:SHP:1,2017-09-01T11:54:00Z,30.0600,-84.2910,-9.627,1111122 
COMPS,ioos:station:USF.COMPS:SHP:1,2017-09-01T12:00:00Z,30.0600,-84.2910,-9.63,1111122 
COMPS,ioos:station:USF.COMPS:SHP:1,2017-09-01T12:06:00Z,30.0600,-84.2910,-9.631,1111122 
COMPS,ioos:station:USF.COMPS:SHP:1,2017-09-01T12:12:00Z,30.0600,-84.2910,-9.622,1111122 
COMPS,ioos:station:USF.COMPS:SHP:1,2017-09-01T12:18:00Z,30.0600,-84.2910,-9.614,1111122 
COMPS,ioos:station:USF.COMPS:SHP:1,2017-09-01T12:24:00Z,30.0600,-84.2910,-9.604,1111122 
COMPS,ioos:station:USF.COMPS:SHP:1,2017-09-01T12:30:00Z,30.0600,-84.2910,-9.598,1111122 
COMPS,ioos:station:USF.COMPS:SHP:1,2017-09-01T12:36:00Z,30.0600,-84.2910,-9.59,1111122 
COMPS,ioos:station:USF.COMPS:SHP:1,2017-09-01T12:42:00Z,30.0600,-84.2910,-9.583,1111122 
COMPS,ioos:station:USF.COMPS:SHP:1,2017-09-01T12:48:00Z,30.0600,-84.2910,-9.575,1111122 
COMPS,ioos:station:USF.COMPS:SHP:1,2017-09-01T12:54:00Z,30.0600,-84.2910,-9.569,1111122 
COMPS,ioos:station:USF.COMPS:SHP:1,2017-09-01T13:00:00Z,30.0600,-84.2910,-9.567,1111122 
COMPS,ioos:station:USF.COMPS:SHP:1,2017-09-01T13:06:00Z,30.0600,-84.2910,-9.57,1111122 
COMPS,ioos:station:USF.COMPS:SHP:1,2017-09-01T13:12:00Z,30.0600,-84.2910,-9.562,1111122 
COMPS,ioos:station:USF.COMPS:SHP:1,2017-09-01T13:18:00Z,30.0600,-84.2910,-9.557,1111122 
COMPS,ioos:station:USF.COMPS:SHP:1,2017-09-01T13:24:00Z,30.0600,-84.2910,-9.554,1111122 
COMPS,ioos:station:USF.COMPS:SHP:1,2017-09-01T13:30:00Z,30.0600,-84.2910,-9.546,1111122 
COMPS,ioos:station:USF.COMPS:SHP:1,2017-09-01T13:36:00Z,30.0600,-84.2910,-9.543,1111122 
COMPS,ioos:station:USF.COMPS:SHP:1,2017-09-01T13:42:00Z,30.0600,-84.2910,-9.546,1111122 
COMPS,ioos:station:USF.COMPS:SHP:1,2017-09-01T13:48:00Z,30.0600,-84.2910,-9.542,1111122 
COMPS,ioos:station:USF.COMPS:SHP:1,2017-09-01T13:54:00Z,30.0600,-84.2910,-9.536,1111122 
COMPS,ioos:station:USF.COMPS:SHP:1,2017-09-01T14:00:00Z,30.0600,-84.2910,-9.528,1111122 
COMPS,ioos:station:USF.COMPS:SHP:1,2017-09-01T14:06:00Z,30.0600,-84.2910,-9.502,1111122 
COMPS,ioos:station:USF.COMPS:SHP:1,2017-09-01T14:12:00Z,30.0600,-84.2910,-9.491,1111122 
COMPS,ioos:station:USF.COMPS:SHP:1,2017-09-01T14:18:00Z,30.0600,-84.2910,-9.499,1111122 
COMPS,ioos:station:USF.COMPS:SHP:1,2017-09-01T14:24:00Z,30.0600,-84.2910,-9.513,1111122 
COMPS,ioos:station:USF.COMPS:SHP:1,2017-09-01T14:30:00Z,30.0600,-84.2910,-9.504,1111122 
COMPS,ioos:station:USF.COMPS:SHP:1,2017-09-01T14:36:00Z,30.0600,-84.2910,-9.487,1111122 
COMPS,ioos:station:USF.COMPS:SHP:1,2017-09-01T14:42:00Z,30.0600,-84.2910,-9.496,1111122 
COMPS,ioos:station:USF.COMPS:SHP:1,2017-09-01T14:48:00Z,30.0600,-84.2910,-9.496,1111122 
COMPS,ioos:station:USF.COMPS:SHP:1,2017-09-01T14:54:00Z,30.0600,-84.2910,-9.487,1111122 
COMPS,ioos:station:USF.COMPS:SHP:1,2017-09-01T15:00:00Z,30.0600,-84.2910,-9.474,1111122 
COMPS,ioos:station:USF.COMPS:SHP:1,2017-09-01T15:06:00Z,30.0600,-84.2910,-9.472,1111122 
COMPS,ioos:station:USF.COMPS:SHP:1,2017-09-01T15:12:00Z,30.0600,-84.2910,-9.458,1111122 
COMPS,ioos:station:USF.COMPS:SHP:1,2017-09-01T15:18:00Z,30.0600,-84.2910,-9.445,1111122 
COMPS,ioos:station:USF.COMPS:SHP:1,2017-09-01T15:24:00Z,30.0600,-84.2910,-9.451,1111122 
COMPS,ioos:station:USF.COMPS:SHP:1,2017-09-01T15:30:00Z,30.0600,-84.2910,-9.453,1111122 
COMPS,ioos:station:USF.COMPS:SHP:1,2017-09-01T15:36:00Z,30.0600,-84.2910,-9.454,1111122 
COMPS,ioos:station:USF.COMPS:SHP:1,2017-09-01T15:42:00Z,30.0600,-84.2910,-9.46,1111122 
COMPS,ioos:station:USF.COMPS:SHP:1,2017-09-01T15:48:00Z,30.0600,-84.2910,-9.458,1111122 
COMPS,ioos:station:USF.COMPS:SHP:1,2017-09-01T15:54:00Z,30.0600,-84.2910,-9.455,1111122 
COMPS,ioos:station:USF.COMPS:SHP:1,2017-09-01T16:00:00Z,30.0600,-84.2910,-9.459,1111122 
COMPS,ioos:station:USF.COMPS:SHP:1,2017-09-01T16:06:00Z,30.0600,-84.2910,-9.468,1111122 
COMPS,ioos:station:USF.COMPS:SHP:1,2017-09-01T16:12:00Z,30.0600,-84.2910,-9.461,1111122 
COMPS,ioos:station:USF.COMPS:SHP:1,2017-09-01T16:18:00Z,30.0600,-84.2910,-9.463,1111122 
COMPS,ioos:station:USF.COMPS:SHP:1,2017-09-01T16:24:00Z,30.0600,-84.2910,-9.46,1111122 
COMPS,ioos:station:USF.COMPS:SHP:1,2017-09-01T16:30:00Z,30.0600,-84.2910,-9.459,1111122 
COMPS,ioos:station:USF.COMPS:SHP:1,2017-09-01T16:36:00Z,30.0600,-84.2910,-9.474,1111122 
COMPS,ioos:station:USF.COMPS:SHP:1,2017-09-01T16:42:00Z,30.0600,-84.2910,-9.492,1111122 
COMPS,ioos:station:USF.COMPS:SHP:1,2017-09-01T16:48:00Z,30.0600,-84.2910,-9.489,1111122 
COMPS,ioos:station:USF.COMPS:SHP:1,2017-09-01T16:54:00Z,30.0600,-84.2910,-9.507,1111122 
COMPS,ioos:station:USF.COMPS:SHP:1,2017-09-01T17:00:00Z,30.0600,-84.2910,-9.53,1111122 
COMPS,ioos:station:USF.COMPS:SHP:1,2017-09-01T17:06:00Z,30.0600,-84.2910,-9.533,1111122 
COMPS,ioos:station:USF.COMPS:SHP:1,2017-09-01T17:12:00Z,30.0600,-84.2910,-9.527,1111122 
COMPS,ioos:station:USF.COMPS:SHP:1,2017-09-01T17:18:00Z,30.0600,-84.2910,-9.542,1111122 
COMPS,ioos:station:USF.COMPS:SHP:1,2017-09-01T17:24:00Z,30.0600,-84.2910,-9.532,1111122 
COMPS,ioos:station:USF.COMPS:SHP:1,2017-09-01T17:30:00Z,30.0600,-84.2910,-9.545,1111122 
COMPS,ioos:station:USF.COMPS:SHP:1,2017-09-01T17:36:00Z,30.0600,-84.2910,-9.576,1111122 
COMPS,ioos:station:USF.COMPS:SHP:1,2017-09-01T17:42:00Z,30.0600,-84.2910,-9.591,1111122 
COMPS,ioos:station:USF.COMPS:SHP:1,2017-09-01T17:48:00Z,30.0600,-84.2910,-9.586,1111122 
COMPS,ioos:station:USF.COMPS:SHP:1,2017-09-01T17:54:00Z,30.0600,-84.2910,-9.593,1111122 
COMPS,ioos:station:USF.COMPS:SHP:1,2017-09-01T18:00:00Z,30.0600,-84.2910,-9.616,1111122 
COMPS,ioos:station:USF.COMPS:SHP:1,2017-09-01T18:06:00Z,30.0600,-84.2910,-9.633,1111122 
COMPS,ioos:station:USF.COMPS:SHP:1,2017-09-01T18:12:00Z,30.0600,-84.2910,-9.638,1111122 
COMPS,ioos:station:USF.COMPS:SHP:1,2017-09-01T18:18:00Z,30.0600,-84.2910,-9.663,1111122 
COMPS,ioos:station:USF.COMPS:SHP:1,2017-09-01T18:24:00Z,30.0600,-84.2910,-9.684,1111122 
COMPS,ioos:station:USF.COMPS:SHP:1,2017-09-01T18:30:00Z,30.0600,-84.2910,-9.703,1111122 
COMPS,ioos:station:USF.COMPS:SHP:1,2017-09-01T18:36:00Z,30.0600,-84.2910,-9.727,1111122 
COMPS,ioos:station:USF.COMPS:SHP:1,2017-09-01T18:42:00Z,30.0600,-84.2910,-9.746,1111122 
COMPS,ioos:station:USF.COMPS:SHP:1,2017-09-01T18:48:00Z,30.0600,-84.2910,-9.767,1111122 
COMPS,ioos:station:USF.COMPS:SHP:1,2017-09-01T18:54:00Z,30.0600,-84.2910,-9.79,1111122 
COMPS,ioos:station:USF.COMPS:SHP:1,2017-09-01T19:00:00Z,30.0600,-84.2910,-9.793,1111122 
COMPS,ioos:station:USF.COMPS:SHP:1,2017-09-01T19:06:00Z,30.0600,-84.2910,-9.797,1111122 
COMPS,ioos:station:USF.COMPS:SHP:1,2017-09-01T19:12:00Z,30.0600,-84.2910,-9.823,1111122 
COMPS,ioos:station:USF.COMPS:SHP:1,2017-09-01T19:18:00Z,30.0600,-84.2910,-9.842,1111122 
COMPS,ioos:station:USF.COMPS:SHP:1,2017-09-01T19:24:00Z,30.0600,-84.2910,-9.856,1111122 
COMPS,ioos:station:USF.COMPS:SHP:1,2017-09-01T19:30:00Z,30.0600,-84.2910,-9.88,1111122 
COMPS,ioos:station:USF.COMPS:SHP:1,2017-09-01T19:36:00Z,30.0600,-84.2910,-9.898,1111122 
COMPS,ioos:station:USF.COMPS:SHP:1,2017-09-01T19:42:00Z,30.0600,-84.2910,-9.913,1111122 
COMPS,ioos:station:USF.COMPS:SHP:1,2017-09-01T19:48:00Z,30.0600,-84.2910,-9.929,1111122 
COMPS,ioos:station:USF.COMPS:SHP:1,2017-09-01T19:54:00Z,30.0600,-84.2910,-9.947,1111122 
COMPS,ioos:station:USF.COMPS:SHP:1,2017-09-01T20:00:00Z,30.0600,-84.2910,-9.964,1111122 
COMPS,ioos:station:USF.COMPS:SHP:1,2017-09-01T20:06:00Z,30.0600,-84.2910,-9.98,1111122 
COMPS,ioos:station:USF.COMPS:SHP:1,2017-09-02T01:24:00Z,30.0600,-84.2910,-9.995,1111122 
COMPS,ioos:station:USF.COMPS:SHP:1,2017-09-02T01:30:00Z,30.0600,-84.2910,-9.981,1111122 
COMPS,ioos:station:USF.COMPS:SHP:1,2017-09-02T01:36:00Z,30.0600,-84.2910,-9.96,1111122 
COMPS,ioos:station:USF.COMPS:SHP:1,2017-09-02T01:42:00Z,30.0600,-84.2910,-9.936,1111122 
COMPS,ioos:station:USF.COMPS:SHP:1,2017-09-02T01:48:00Z,30.0600,-84.2910,-9.91,1111122 
COMPS,ioos:station:USF.COMPS:SHP:1,2017-09-02T01:54:00Z,30.0600,-84.2910,-9.888,1111122 
COMPS,ioos:station:USF.COMPS:SHP:1,2017-09-02T02:00:00Z,30.0600,-84.2910,-9.876,1111122 
COMPS,ioos:station:USF.COMPS:SHP:1,2017-09-02T02:06:00Z,30.0600,-84.2910,-9.868,1111122 
COMPS,ioos:station:USF.COMPS:SHP:1,2017-09-02T02:12:00Z,30.0600,-84.2910,-9.841,1111122 
COMPS,ioos:station:USF.COMPS:SHP:1,2017-09-02T02:18:00Z,30.0600,-84.2910,-9.814,1111122 
COMPS,ioos:station:USF.COMPS:SHP:1,2017-09-02T02:24:00Z,30.0600,-84.2910,-9.802,1111122 
COMPS,ioos:station:USF.COMPS:SHP:1,2017-09-02T02:30:00Z,30.0600,-84.2910,-9.785,1111122 
COMPS,ioos:station:USF.COMPS:SHP:1,2017-09-02T02:36:00Z,30.0600,-84.2910,-9.77,1111122 
COMPS,ioos:station:USF.COMPS:SHP:1,2017-09-02T02:42:00Z,30.0600,-84.2910,-9.754,1111122 
COMPS,ioos:station:USF.COMPS:SHP:1,2017-09-02T02:48:00Z,30.0600,-84.2910,-9.732,1111122 
COMPS,ioos:station:USF.COMPS:SHP:1,2017-09-02T02:54:00Z,30.0600,-84.2910,-9.709,1111122 
COMPS,ioos:station:USF.COMPS:SHP:1,2017-09-02T03:00:00Z,30.0600,-84.2910,-9.667,1111122 
COMPS,ioos:station:USF.COMPS:SHP:1,2017-09-02T03:06:00Z,30.0600,-84.2910,-9.606,1111122 
COMPS,ioos:station:USF.COMPS:SHP:1,2017-09-02T03:12:00Z,30.0600,-84.2910,-9.543,1111122 
COMPS,ioos:station:USF.COMPS:SHP:1,2017-09-02T03:18:00Z,30.0600,-84.2910,-9.475,1111122 
COMPS,ioos:station:USF.COMPS:SHP:1,2017-09-02T03:24:00Z,30.0600,-84.2910,-9.459,1111122 
COMPS,ioos:station:USF.COMPS:SHP:1,2017-09-02T03:30:00Z,30.0600,-84.2910,-9.479,1111122 
COMPS,ioos:station:USF.COMPS:SHP:1,2017-09-02T03:36:00Z,30.0600,-84.2910,-9.498,1111122 
COMPS,ioos:station:USF.COMPS:SHP:1,2017-09-02T03:42:00Z,30.0600,-84.2910,-9.488,1111122 
COMPS,ioos:station:USF.COMPS:SHP:1,2017-09-02T03:48:00Z,30.0600,-84.2910,-9.5,1111122 
COMPS,ioos:station:USF.COMPS:SHP:1,2017-09-02T03:54:00Z,30.0600,-84.2910,-9.503,1111122 
COMPS,ioos:station:USF.COMPS:SHP:1,2017-09-02T04:00:00Z,30.0600,-84.2910,-9.469,1111122 
COMPS,ioos:station:USF.COMPS:SHP:1,2017-09-02T04:06:00Z,30.0600,-84.2910,-9.463,1111122 
COMPS,ioos:station:USF.COMPS:SHP:1,2017-09-02T04:12:00Z,30.0600,-84.2910,-9.494,1111122 
COMPS,ioos:station:USF.COMPS:SHP:1,2017-09-02T04:18:00Z,30.0600,-84.2910,-9.492,1111122 
COMPS,ioos:station:USF.COMPS:SHP:1,2017-09-02T04:24:00Z,30.0600,-84.2910,-9.496,1111122 
COMPS,ioos:station:USF.COMPS:SHP:1,2017-09-02T04:30:00Z,30.0600,-84.2910,-9.502,1111122 
COMPS,ioos:station:USF.COMPS:SHP:1,2017-09-02T04:36:00Z,30.0600,-84.2910,-9.494,1111122 
COMPS,ioos:station:USF.COMPS:SHP:1,2017-09-02T04:42:00Z,30.0600,-84.2910,-9.465,1111122 
COMPS,ioos:station:USF.COMPS:SHP:1,2017-09-02T04:48:00Z,30.0600,-84.2910,-9.446,1111122 
COMPS,ioos:station:USF.COMPS:SHP:1,2017-09-02T04:54:00Z,30.0600,-84.2910,-9.457,1111122 
COMPS,ioos:station:USF.COMPS:SHP:1,2017-09-02T05:00:00Z,30.0600,-84.2910,-9.474,1111122 
COMPS,ioos:station:USF.COMPS:SHP:1,2017-09-02T05:06:00Z,30.0600,-84.2910,-9.472,1111122 
COMPS,ioos:station:USF.COMPS:SHP:1,2017-09-02T05:12:00Z,30.0600,-84.2910,-9.465,1111122 
COMPS,ioos:station:USF.COMPS:SHP:1,2017-09-02T05:18:00Z,30.0600,-84.2910,-9.474,1111122 
COMPS,ioos:station:USF.COMPS:SHP:1,2017-09-02T05:24:00Z,30.0600,-84.2910,-9.48,1111122 
COMPS,ioos:station:USF.COMPS:SHP:1,2017-09-02T05:30:00Z,30.0600,-84.2910,-9.499,1111122 
COMPS,ioos:station:USF.COMPS:SHP:1,2017-09-02T05:36:00Z,30.0600,-84.2910,-9.543,1111122 
COMPS,ioos:station:USF.COMPS:SHP:1,2017-09-02T05:42:00Z,30.0600,-84.2910,-9.563,1111122 
COMPS,ioos:station:USF.COMPS:SHP:1,2017-09-02T05:48:00Z,30.0600,-84.2910,-9.557,1111122 
COMPS,ioos:station:USF.COMPS:SHP:1,2017-09-02T05:54:00Z,30.0600,-84.2910,-9.566,1111122 
COMPS,ioos:station:USF.COMPS:SHP:1,2017-09-02T06:00:00Z,30.0600,-84.2910,-9.588,1111122 
COMPS,ioos:station:USF.COMPS:SHP:1,2017-09-02T06:06:00Z,30.0600,-84.2910,-9.6,1111122 
COMPS,ioos:station:USF.COMPS:SHP:1,2017-09-02T06:12:00Z,30.0600,-84.2910,-9.617,1111122 
COMPS,ioos:station:USF.COMPS:SHP:1,2017-09-02T06:18:00Z,30.0600,-84.2910,-9.643,1111122 
COMPS,ioos:station:USF.COMPS:SHP:1,2017-09-02T06:24:00Z,30.0600,-84.2910,-9.656,1111122 
COMPS,ioos:station:USF.COMPS:SHP:1,2017-09-02T06:30:00Z,30.0600,-84.2910,-9.66,1111122 
COMPS,ioos:station:USF.COMPS:SHP:1,2017-09-02T06:36:00Z,30.0600,-84.2910,-9.672,1111122 
COMPS,ioos:station:USF.COMPS:SHP:1,2017-09-02T06:42:00Z,30.0600,-84.2910,-9.685,1111122 
COMPS,ioos:station:USF.COMPS:SHP:1,2017-09-02T06:48:00Z,30.0600,-84.2910,-9.684,1111122 
COMPS,ioos:station:USF.COMPS:SHP:1,2017-09-02T06:54:00Z,30.0600,-84.2910,-9.691,1111122 
COMPS,ioos:station:USF.COMPS:SHP:1,2017-09-02T07:00:00Z,30.0600,-84.2910,-9.711,1111122 
COMPS,ioos:station:USF.COMPS:SHP:1,2017-09-02T07:06:00Z,30.0600,-84.2910,-9.714,1111122 
COMPS,ioos:station:USF.COMPS:SHP:1,2017-09-02T07:12:00Z,30.0600,-84.2910,-9.7,1111122 
COMPS,ioos:station:USF.COMPS:SHP:1,2017-09-02T07:18:00Z,30.0600,-84.2910,-9.712,1111122 
COMPS,ioos:station:USF.COMPS:SHP:1,2017-09-02T07:24:00Z,30.0600,-84.2910,-9.733,1111122 
COMPS,ioos:station:USF.COMPS:SHP:1,2017-09-02T07:30:00Z,30.0600,-84.2910,-9.745,1111122 
COMPS,ioos:station:USF.COMPS:SHP:1,2017-09-02T07:36:00Z,30.0600,-84.2910,-9.758,1111122 
COMPS,ioos:station:USF.COMPS:SHP:1,2017-09-02T07:42:00Z,30.0600,-84.2910,-9.768,1111122 
COMPS,ioos:station:USF.COMPS:SHP:1,2017-09-02T07:48:00Z,30.0600,-84.2910,-9.766,1111122 
COMPS,ioos:station:USF.COMPS:SHP:1,2017-09-02T07:54:00Z,30.0600,-84.2910,-9.764,1111122 
COMPS,ioos:station:USF.COMPS:SHP:1,2017-09-02T08:00:00Z,30.0600,-84.2910,-9.776,1111122 
COMPS,ioos:station:USF.COMPS:SHP:1,2017-09-02T08:06:00Z,30.0600,-84.2910,-9.786,1111122 
COMPS,ioos:station:USF.COMPS:SHP:1,2017-09-02T08:12:00Z,30.0600,-84.2910,-9.78,1111122 
COMPS,ioos:station:USF.COMPS:SHP:1,2017-09-02T08:18:00Z,30.0600,-84.2910,-9.772,1111122 
COMPS,ioos:station:USF.COMPS:SHP:1,2017-09-02T08:24:00Z,30.0600,-84.2910,-9.773,1111122 
COMPS,ioos:station:USF.COMPS:SHP:1,2017-09-02T08:30:00Z,30.0600,-84.2910,-9.765,1111122 